Location: Windsor
(43.2292°N, 89.3015°W)
Time: 05:21:31
(UTC+00:00)

BEESAT - Pass Details

Date: 30 June 2022
Orbit: 700 x 706 km, 98.6° (Epoch: 07 August)

Event Time Altitude Azimuth Distance (km) Brightness Sun altitude
Rises 03:02:11 0° 6° (N) 3,103 ? -11.9°
Reaches altitude 10° 03:04:32 10° 359° (N) 2,181 ? -12.2°
Maximum altitude 03:08:59 40° 291° (WNW) 1,029 ? -12.7°
Drops below altitude 10° 03:13:25 10° 222° (SW) 2,170 ? -13.3°
Sets 03:15:46 0° 215° (SW) 3,085 ? -13.5°
